Regional Weather Roundup
Issued by NWS Kansas City/Pleasant Hill, MO

Home | Current Version | Previous Version | Text Only | Print | Product List | Glossary On
Versions: 1 2 3 4 5 6 7 8 9 10 11 12 13 14 15 16 17 18 19 20 21 22 23 24 25 26 27 28 29 30 31 32 33 34 35 36 37 38 39 40 41 42 43 44 45 46 47 48 49 50
590
ASUS43 KEAX 300110
RWREAX

WEATHER ROUNDUP FOR EASTERN KANSAS AND NORTHWEST MISSOURI
NATIONAL WEATHER SERVICE KANSAS CITY/PLEASANT HILL MO
800 PM CDT MON AUG 29 2016

KSZ040-057-103>105-MOZ028-029-037-043-300200-
...KANSAS CITY METROPOLITAN AREA...

CITY           SKY/WX    TMP DP  RH WIND       PRES   REMARKS
K.C. INTL      PTCLDY    82  70  66 NE7       30.13R
K.C. DOWNTOWN  CLEAR     84  72  67 E5        30.10R
LEES SUMMIT    CLEAR     84  72  67 E5        30.12R
OLATHE - IXD   CLEAR     80  73  79 S3        30.13R
OLATHE - OJC   CLEAR     82  70  66 S3        30.12R
LAWRENCE       CLEAR     79  75  87 N5        30.11R

$$

MOZ001>008-011>017-020>025-030>033-038>040-044>046-053-054-300200-
...NORTHERN AND CENTRAL MISSOURI...

CITY           SKY/WX    TMP DP  RH WIND       PRES   REMARKS
ST. JOSEPH     PTCLDY    81  72  74 SE5       30.11S
MOSBY          CLEAR     81  72  74 N3        30.11R
WHITEMAN AFB   PTCLDY    81  74  81 E2        30.11R
CLINTON        CLEAR     81  73  78 CALM      30.11R
SEDALIA        CLEAR     83  72  69 CALM      30.13R
WARSAW         NOT AVBL
CHILLICOTHE      N/A     82  73  74 NE7       30.14R
KIRKSVILLE     CLOUDY    76  72  87 N7        30.16R

$$

MOZ041-047>049-056>058-063>065-088>090-097-300200-
...EASTERN AND SOUTHERN MISSOURI...

CITY           SKY/WX    TMP DP  RH WIND       PRES   REMARKS
ST. LOUIS INTL CLOUDY    88  72  58 E6        30.11S HX  94
SPIRIT OF STL  PTCLDY    83  78  85 CALM      30.09R HX  93
COLUMBIA       CLEAR     80  75  84 E3        30.13R
JEFFERSON CITY CLEAR     82  74  76 CALM      30.10R
ROLLA          CLEAR     79  72  79 E5        30.12S
OSAGE BEACH    CLEAR     79  75  87 CALM      30.11S
SPRINGFIELD    CLOUDY    80  67  64 SE6       30.11R
BRANSON        MOCLDY    73  70  88 S5        30.12F
JOPLIN         CLEAR     81  67  62 SE5       30.10R
WEST PLAINS    CLEAR     78  73  84 NE3       30.13S

$$

IAZ060-094-KSZ022-034>040-054-083-096-NEZ052-066-093-300200-
...KANSAS...SOUTHEAST NEBRASKA AND IOWA...

CITY           SKY/WX    TMP DP  RH WIND       PRES   REMARKS
TOPEKA         PTCLDY    80  73  79 CALM      30.11R
MANHATTAN      MOCLDY    77  68  73 W3        30.12S
EMPORIA        CLOUDY    77  74  90 SE3       30.12S
CHANUTE        PTCLDY    78  70  76 N5        30.10R
WICHITA        MOCLDY    81  69  67 S3        30.11S
OMAHA          CLOUDY    73  68  84 CALM      30.18R
LINCOLN        CLOUDY    73  68  84 N7        30.17R
FALLS CITY     LGT RAIN  80  71  74 CALM      30.11R
LAMONI         CLOUDY    74  72  93 W8        30.17R
DES MOINES     CLOUDY    77  70  79 E6        30.14F

$$





USA.gov is the U.S. government's official web portal to all federal, state and local government web resources and services.